User: anonymous   Login
Location: Unspecified
(0.0000°N, 0.0000°E)
Time: 03:35:36
(UTC+00:00)
Language:

UNISAT 3 - Orbit

View from above orbital plane
View from above orbital plane
View from above satellite
View from above satellite

Ground track
Ground track

The orbit data is extracted from the following two-line orbital elements,

1 28373U 04025H   17173.88689840 +.00000049 +00000-0 +26254-4 0  9990
2 28373 098.3364 115.7932 0068641 191.5989 168.3624 14.45403167684736
Epoch (UTC): 22 June 2017 21:17:08
Eccentricity: 0.0068641
inclination: 98.3364°
perigee height: 692 km
apogee height: 789 km
right ascension of ascending node: 115.7932°
argument of perigee: 191.5989°
revolutions per day: 14.45403167
mean anomaly at epoch: 168.3624°
orbit number at epoch: 68473

The dashed part of the orbit path shows where the satellite is in the earth's shadow,  

DLR